Weather in Wieliczka

Poland     49°59′15″N   20°03′08″E
temp.,
°C
wind,
m/s
gust,
m/s
humid.,
%
clouds,
%
prec.,
mm/h
press.,
hPa
HPBL,
m
9 may, sun
sun923:00+4s117821 0.0 102210
02:00+3s22767 0.0 102214
05:00+3sse22716 0.0 102217
08:00+9sse235760 0.0 1021225
11:00+16s244618 0.0 10191130
14:00+19nw23455 0.0 10191296
17:00+19e335367 0.0 1017769
20:00+13ese237542 0.0 101735
10 may, mon
mon1023:00+10s22765 0.0 101817
02:00+8s227866 0.0 101817
05:00+7se12755 0.0 101715
08:00+13ese23645 0.0 1016194
11:00+20ese24495 0.0 1015646
14:00+22ene32496 0.0 1014678
17:00+23ne2354100 0.0 1013405
20:00+17wnw016882 0.0 101412
11 may, tue
tue1123:00+13s117742 0.0 101511
02:00+12se228070 0.0 101416
05:00+11se22835 0.0 101319
08:00+16e22724 0.0 1012186
11:00+22e34591 0.0 1011620
14:00+25ene33512 0.0 1010769
17:00+24e47565 0.0 1008529
20:00+18e47787 0.0 1008151
12 may, wed
wed1223:00+14e35875 0.0 100999
02:00+11ene23920 0.0 100862
05:00+10ene23943 0.0 100753
08:00+14ene33830 0.0 1006262
11:00+21e566368 0.0 10051088
14:00+21ene9116511 0.0 1004805
17:00+19e9127215 0.0 1003838
20:00+15e814735 0.1 1003592
13 may, thu
thu1323:00+12e6137537 0.0 1003488
02:00+9ene49875 0.0 1003318
05:00+7ene499129 0.0 1003352
08:00+9ene5880100 0.0 1003643
11:00+11e5878100 0.0 1003919
14:00+12e577897 0.1 1003871
17:00+12ese447794 0.1 1004786
20:00+10sse2381100 0.1 1005136